This is the latest recevied weather packets stored in our database for station/object GW7287. If no packets are shown the sender has not sent any weather packets the latest 10 day(s).
| Time | Temp. | Humidity | Pressure | Rain* | Wind** | Luminosity | Snow |
|---|---|---|---|---|---|---|---|
| 1788144889 | 14.44° C | 80% | 935.7 hPa | - | - | - | - |
| 1788134566 | 18.89° C | 46% | 935.4 hPa | - | - | - | - |
| 1788133201 | 18.89° C | 46% | 935.4 hPa | - | - | - | - |
| 1788126251 | 20° C | 36% | 934.6 hPa | - | - | - | - |
| 1788124777 | 21.67° C | 33% | 934.2 hPa | - | - | - | - |
| 1788113787 | 27.22° C | 28% | 933.2 hPa | - | - | - | - |
| 1788113332 | 27.22° C | 28% | 933.2 hPa | - | - | - | - |
| 1788100094 | 27.78° C | 40% | 934 hPa | - | - | - | - |
| 1788098791 | 27.78° C | 40% | 934 hPa | - | - | - | - |
| 1788080787 | 17.78° C | 74% | 934.8 hPa | - | - | - | - |
| 1788079343 | 17.78° C | 74% | 934.8 hPa | - | - | - | - |
| 1788058795 | 18.33° C | 65% | 934.2 hPa | - | - | - | - |
| 1788057188 | 18.33° C | 65% | 934.2 hPa | - | - | - | - |
| 1788047367 | 20° C | 60% | 934.5 hPa | - | - | - | - |
| 1788047012 | 20° C | 60% | 934.5 hPa | - | - | - | - |
| 1788040330 | 21.67° C | 46% | 934.3 hPa | - | - | - | - |
| 1788038614 | 22.78° C | 40% | 934.2 hPa | - | - | - | - |
| 1788031620 | 26.67° C | 31% | 933.8 hPa | - | - | - | - |
| 1788026506 | 27.22° C | 27% | 933.8 hPa | - | - | - | - |
| 1788019350 | 27.78° C | 29% | 934.8 hPa | - | - | - | - |
| 1788014943 | 27.22° C | 29% | 935.2 hPa | - | - | - | - |
| 1788003816 | 22.22° C | 47% | 936.6 hPa | - | - | - | - |
| 1787996378 | 17.78° C | 66% | 937 hPa | - | - | - | - |
| 1787980162 | 12.22° C | 84% | 936 hPa | - | - | - | - |
| 1787972202 | 14.44° C | 75% | 936 hPa | - | - | - | - |
* Rain since midnight (hover to see other rain measurements)
** Current wind speed in m/s (hover to see current wind gust speed)